Location: Recife
(8.0585°S, 34.8848°W)
Time: 06:52:58
(UTC-03:00)

Vanguard 3 - Pass Details

Date: 23 April 2026
Orbit: 507 x 3205 km, 33.4° (Epoch: 13 May)

Event Time Altitude Azimuth Distance (km) Brightness Sun altitude
Rises 15:04:20 0° 237° (WSW) 7,141 12.4 30.0°
Reaches altitude 10° 15:09:10 10° 237° (WSW) 6,127 12.2 28.9°
Maximum altitude 15:28:36 83° 323° (NW) 2,669 10.3 24.3°
Drops below altitude 10° 15:41:21 10° 51° (NE) 4,250 10.6 21.3°
Sets 15:44:04 0° 51° (NE) 4,945 10.8 20.7°
